Time,TemperatureF,DewpointF,PressureIn,WindDirection,WindDirectionDegrees,WindSpeedMPH,WindSpeedGustMPH,Humidity,HourlyPrecipIn,Conditions,Clouds,dailyrainin,SoftwareType,DateUTC
2013-07-17 00:13:00,79.5,74.0,30.18,NE,49,3.0,8.0,83,0.00,,,0.00,weatherlink.com 1.10,2013-07-17 04:13:00,
2013-07-17 00:28:00,79.4,74.0,30.17,ENE,77,4.0,7.0,83,0.00,,,0.00,weatherlink.com 1.10,2013-07-17 04:28:00,
2013-07-17 00:43:00,79.3,74.0,30.16,ENE,63,0.0,5.0,84,0.00,,,0.00,weatherlink.com 1.10,2013-07-17 04:43:00,
2013-07-17 00:58:00,79.0,74.0,30.16,ENE,70,2.0,4.0,85,0.00,,,0.00,weatherlink.com 1.10,2013-07-17 04:58:00,
2013-07-17 01:13:00,79.1,74.0,30.16,ENE,60,6.0,7.0,85,0.00,,,0.00,weatherlink.com 1.10,2013-07-17 05:13:00,
2013-07-17 01:28:00,79.3,75.0,30.16,ESE,103,8.0,8.0,85,0.00,,,0.00,weatherlink.com 1.10,2013-07-17 05:28:00,
2013-07-17 01:43:00,79.4,74.0,30.16,East,89,7.0,9.0,84,0.00,,,0.00,weatherlink.com 1.10,2013-07-17 05:43:00,
2013-07-17 01:58:00,79.7,74.0,30.15,NE,50,4.0,9.0,83,0.00,,,0.00,weatherlink.com 1.10,2013-07-17 05:58:00,
2013-07-17 02:13:00,79.7,75.0,30.15,East,86,6.0,8.0,84,0.00,,,0.00,weatherlink.com 1.10,2013-07-17 06:13:00,
2013-07-17 02:28:00,79.6,74.0,30.15,ENE,58,4.0,8.0,84,0.00,,,0.00,weatherlink.com 1.10,2013-07-17 06:28:00,
2013-07-17 02:43:00,79.6,74.0,30.14,East,85,7.0,10.0,84,0.00,,,0.00,weatherlink.com 1.10,2013-07-17 06:43:00,
2013-07-17 02:58:00,79.4,74.0,30.13,ENE,64,4.0,11.0,84,0.00,,,0.00,weatherlink.com 1.10,2013-07-17 06:58:00,
2013-07-17 03:13:00,79.1,74.0,30.13,East,99,4.0,7.0,84,0.00,,,0.00,weatherlink.com 1.10,2013-07-17 07:13:00,
2013-07-17 03:28:00,79.0,74.0,30.13,ENE,69,3.0,6.0,84,0.00,,,0.00,weatherlink.com 1.10,2013-07-17 07:28:00,
2013-07-17 03:43:00,78.9,74.0,30.13,ENE,61,1.0,6.0,84,0.00,,,0.00,weatherlink.com 1.10,2013-07-17 07:43:00,
2013-07-17 03:58:00,78.6,74.0,30.13,ENE,78,1.0,4.0,85,0.00,,,0.00,weatherlink.com 1.10,2013-07-17 07:58:00,
2013-07-17 04:13:00,78.9,74.0,30.13,ENE,69,6.0,8.0,84,0.00,,,0.00,weatherlink.com 1.10,2013-07-17 08:13:00,
2013-07-17 04:28:00,79.1,74.0,30.13,ENE,68,7.0,8.0,83,0.00,,,0.00,weatherlink.com 1.10,2013-07-17 08:28:00,
2013-07-17 04:43:00,79.0,74.0,30.13,NE,48,4.0,9.0,85,0.00,,,0.00,weatherlink.com 1.10,2013-07-17 08:43:00,
2013-07-17 04:59:00,78.9,74.0,30.13,ENE,60,4.0,7.0,85,0.00,,,0.00,weatherlink.com 1.10,2013-07-17 08:59:00,
2013-07-17 05:14:00,79.0,74.0,30.13,East,91,3.0,8.0,85,0.00,,,0.00,weatherlink.com 1.10,2013-07-17 09:14:00,
2013-07-17 05:29:00,79.2,74.0,30.14,ENE,76,7.0,9.0,83,0.00,,,0.00,weatherlink.com 1.10,2013-07-17 09:29:00,
2013-07-17 05:44:00,79.5,74.0,30.14,East,86,9.0,11.0,83,0.00,,,0.00,weatherlink.com 1.10,2013-07-17 09:44:00,
2013-07-17 05:59:00,79.4,73.0,30.15,East,79,14.0,14.0,80,0.00,,,0.00,weatherlink.com 1.10,2013-07-17 09:59:00,
2013-07-17 06:15:00,79.3,72.0,30.15,ENE,65,5.0,9.0,79,0.00,,,0.00,weatherlink.com 1.10,2013-07-17 10:15:00,
2013-07-17 06:29:00,79.3,73.0,30.15,ENE,76,4.0,8.0,80,0.00,,,0.00,weatherlink.com 1.10,2013-07-17 10:29:00,
2013-07-17 06:44:00,79.2,73.0,30.16,ENE,72,4.0,10.0,81,0.00,,,0.00,weatherlink.com 1.10,2013-07-17 10:44:00,
2013-07-17 06:59:00,79.3,73.0,30.17,ENE,71,9.0,10.0,82,0.00,,,0.00,weatherlink.com 1.10,2013-07-17 10:59:00,
2013-07-17 07:14:00,79.5,74.0,30.17,East,94,4.0,10.0,83,0.00,,,0.00,weatherlink.com 1.10,2013-07-17 11:14:00,
2013-07-17 07:29:00,79.7,74.0,30.17,East,85,10.0,12.0,82,0.00,,,0.00,weatherlink.com 1.10,2013-07-17 11:29:00,
2013-07-17 07:44:00,79.9,74.0,30.17,ESE,108,5.0,11.0,81,0.00,,,0.00,weatherlink.com 1.10,2013-07-17 11:44:00,
2013-07-17 07:59:00,80.1,74.0,30.17,ESE,105,5.0,10.0,81,0.00,,,0.00,weatherlink.com 1.10,2013-07-17 11:59:00,
2013-07-17 08:14:00,80.9,75.0,30.17,East,85,6.0,10.0,81,0.00,,,0.00,weatherlink.com 1.10,2013-07-17 12:14:00,
2013-07-17 08:29:00,81.0,75.0,30.17,ENE,68,7.0,14.0,81,0.00,,,0.00,weatherlink.com 1.10,2013-07-17 12:29:00,
2013-07-17 08:44:00,80.7,74.0,30.17,ENE,71,11.0,11.0,81,0.00,,,0.00,weatherlink.com 1.10,2013-07-17 12:44:00,
2013-07-17 08:59:00,80.6,75.0,30.17,ENE,71,5.0,11.0,82,0.00,,,0.00,weatherlink.com 1.10,2013-07-17 12:59:00,
2013-07-17 09:14:00,80.7,75.0,30.17,ENE,71,9.0,10.0,82,0.00,,,0.00,weatherlink.com 1.10,2013-07-17 13:14:00,
2013-07-17 09:29:00,80.9,75.0,30.17,ENE,64,5.0,8.0,82,0.00,,,0.00,weatherlink.com 1.10,2013-07-17 13:29:00,
2013-07-17 09:44:00,81.3,75.0,30.18,East,85,5.0,10.0,80,0.00,,,0.00,weatherlink.com 1.10,2013-07-17 13:44:00,
2013-07-17 09:59:00,81.0,75.0,30.17,ENE,71,5.0,9.0,82,0.00,,,0.00,weatherlink.com 1.10,2013-07-17 13:59:00,
2013-07-17 14:57:00,74.9,73.0,30.18,ESE,108,3.0,5.0,93,0.13,,,0.13,weatherlink.com 1.10,2013-07-17 18:57:00,
2013-07-17 15:14:00,75.3,73.0,30.17,East,97,4.0,8.0,93,0.17,,,0.17,weatherlink.com 1.10,2013-07-17 19:14:00,
2013-07-17 15:29:00,76.0,74.0,30.16,ESE,118,3.0,8.0,94,0.08,,,0.19,weatherlink.com 1.10,2013-07-17 19:29:00,
2013-07-17 15:44:00,76.3,74.0,30.16,East,96,10.0,10.0,91,0.07,,,0.19,weatherlink.com 1.10,2013-07-17 19:44:00,
2013-07-17 15:59:00,76.5,74.0,30.16,ESE,108,3.0,6.0,91,0.06,,,0.20,weatherlink.com 1.10,2013-07-17 19:59:00,
2013-07-17 16:15:00,76.8,73.0,30.15,ESE,106,6.0,8.0,89,0.03,,,0.20,weatherlink.com 1.10,2013-07-17 20:15:00,
2013-07-17 16:29:00,77.4,74.0,30.14,ESE,106,3.0,6.0,89,0.01,,,0.20,weatherlink.com 1.10,2013-07-17 20:29:00,
2013-07-17 16:44:00,78.4,73.0,30.14,East,86,5.0,10.0,84,0.01,,,0.20,weatherlink.com 1.10,2013-07-17 20:44:00,
2013-07-17 16:59:00,77.2,74.0,30.13,ESE,108,7.0,15.0,90,0.00,,,0.20,weatherlink.com 1.10,2013-07-17 20:59:00,
2013-07-17 17:14:00,77.4,73.0,30.12,ENE,59,6.0,10.0,86,0.00,,,0.20,weatherlink.com 1.10,2013-07-17 21:14:00,
2013-07-17 17:29:00,77.8,72.0,30.12,East,86,10.0,10.0,81,0.00,,,0.20,weatherlink.com 1.10,2013-07-17 21:29:00,
2013-07-17 17:44:00,78.5,72.0,30.12,ENE,70,5.0,11.0,81,0.00,,,0.20,weatherlink.com 1.10,2013-07-17 21:44:00,
2013-07-17 17:59:00,79.1,73.0,30.11,ENE,61,5.0,12.0,82,0.00,,,0.20,weatherlink.com 1.10,2013-07-17 21:59:00,
2013-07-17 18:14:00,79.0,73.0,30.12,ENE,64,8.0,11.0,82,0.00,,,0.20,weatherlink.com 1.10,2013-07-17 22:14:00,
2013-07-17 18:29:00,79.6,74.0,30.12,ENE,58,11.0,11.0,82,0.00,,,0.20,weatherlink.com 1.10,2013-07-17 22:29:00,
2013-07-17 18:44:00,79.3,74.0,30.12,East,90,5.0,12.0,83,0.00,,,0.20,weatherlink.com 1.10,2013-07-17 22:44:00,
2013-07-17 18:59:00,79.2,74.0,30.13,East,83,6.0,9.0,84,0.00,,,0.20,weatherlink.com 1.10,2013-07-17 22:59:00,
2013-07-17 19:14:00,79.3,74.0,30.13,ENE,58,6.0,9.0,84,0.00,,,0.20,weatherlink.com 1.10,2013-07-17 23:14:00,
2013-07-17 19:29:00,79.2,74.0,30.13,ENE,75,6.0,7.0,85,0.00,,,0.20,weatherlink.com 1.10,2013-07-17 23:29:00,
2013-07-17 19:44:00,79.1,75.0,30.14,ENE,74,6.0,8.0,86,0.00,,,0.20,weatherlink.com 1.10,2013-07-17 23:44:00,
2013-07-17 19:59:00,79.3,73.0,30.14,ESE,107,6.0,11.0,82,0.00,,,0.20,weatherlink.com 1.10,2013-07-17 23:59:00,
2013-07-17 20:14:00,79.3,73.0,30.14,ESE,107,3.0,11.0,81,0.00,,,0.20,weatherlink.com 1.10,2013-07-18 00:14:00,
2013-07-17 20:29:00,79.2,73.0,30.14,East,95,7.0,9.0,81,0.00,,,0.20,weatherlink.com 1.10,2013-07-18 00:29:00,
2013-07-17 20:44:00,79.0,73.0,30.14,East,89,6.0,7.0,81,0.00,,,0.20,weatherlink.com 1.10,2013-07-18 00:44:00,
2013-07-17 21:00:00,78.8,73.0,30.15,ENE,78,6.0,7.0,82,0.00,,,0.20,weatherlink.com 1.10,2013-07-18 01:00:00,
2013-07-17 21:14:00,78.7,72.0,30.15,East,79,3.0,5.0,81,0.00,,,0.20,weatherlink.com 1.10,2013-07-18 01:14:00,
2013-07-17 21:29:00,78.8,73.0,30.15,East,81,5.0,7.0,82,0.00,,,0.20,weatherlink.com 1.10,2013-07-18 01:29:00,
2013-07-17 21:45:00,78.5,74.0,30.15,East,84,5.0,8.0,85,0.00,,,0.20,weatherlink.com 1.10,2013-07-18 01:45:00,
2013-07-17 21:59:00,78.1,74.0,30.15,ENE,62,2.0,6.0,87,0.00,,,0.20,weatherlink.com 1.10,2013-07-18 01:59:00,
2013-07-17 22:15:00,78.4,74.0,30.15,ENE,71,4.0,9.0,85,0.00,,,0.20,weatherlink.com 1.10,2013-07-18 02:15:00,
2013-07-17 22:30:00,78.8,73.0,30.16,East,79,6.0,11.0,82,0.00,,,0.20,weatherlink.com 1.10,2013-07-18 02:30:00,
2013-07-17 22:45:00,78.9,73.0,30.16,East,96,9.0,10.0,81,0.00,,,0.20,weatherlink.com 1.10,2013-07-18 02:45:00,
2013-07-17 23:00:00,78.9,73.0,30.15,ESE,105,3.0,9.0,81,0.00,,,0.20,weatherlink.com 1.10,2013-07-18 03:00:00,
2013-07-17 23:15:00,79.0,74.0,30.15,ESE,114,7.0,13.0,85,0.00,,,0.20,weatherlink.com 1.10,2013-07-18 03:15:00,
2013-07-17 23:30:00,77.7,74.0,30.15,ESE,112,4.0,10.0,88,0.00,,,0.20,weatherlink.com 1.10,2013-07-18 03:30:00,
2013-07-17 23:45:00,77.0,73.0,30.15,ESE,108,5.0,10.0,88,0.00,,,0.20,weatherlink.com 1.10,2013-07-18 03:45:00,